Time,TemperatureF,DewpointF,PressureIn,WindDirection,WindDirectionDegrees,WindSpeedMPH,WindSpeedGustMPH,Humidity,HourlyPrecipIn,Conditions,Clouds,dailyrainin,SolarRadiationWatts/m^2,SoftwareType,DateUTC
2013-06-20 00:02:00,74.0,58.0,29.79,North,360,6.0,-999.0,58,-99.99,,,-99.99,0.000000,,2013-06-20 05:02:00,
2013-06-20 00:12:00,74.0,59.0,29.78,North,360,5.0,-999.0,59,-99.99,,,-99.99,0.000000,,2013-06-20 05:12:00,
2013-06-20 00:22:00,74.0,59.0,29.80,North,360,5.0,-999.0,59,-99.99,,,-99.99,0.000000,,2013-06-20 05:22:00,
2013-06-20 00:33:00,74.0,59.0,29.80,North,360,5.0,-999.0,59,-99.99,,,-99.99,0.000000,,2013-06-20 05:33:00,
2013-06-20 00:44:00,74.0,59.0,29.80,North,360,4.0,-999.0,59,-99.99,,,-99.99,0.000000,,2013-06-20 05:44:00,
2013-06-20 00:52:00,74.0,59.0,29.80,North,360,4.0,-999.0,59,-99.99,,,-99.99,0.000000,,2013-06-20 05:52:00,
2013-06-20 01:01:00,74.0,60.0,29.80,North,360,4.0,-999.0,61,-99.99,,,-99.99,0.000000,,2013-06-20 06:01:00,
2013-06-20 01:11:00,73.0,59.0,29.80,North,360,5.0,-999.0,62,-99.99,,,-99.99,0.000000,,2013-06-20 06:11:00,
2013-06-20 01:22:00,73.0,59.0,29.80,North,360,5.0,-999.0,62,-99.99,,,-99.99,0.000000,,2013-06-20 06:22:00,
2013-06-20 01:33:00,74.0,60.0,29.80,North,360,6.0,-999.0,62,-99.99,,,-99.99,0.000000,,2013-06-20 06:33:00,
2013-06-20 01:43:00,74.0,61.0,29.80,North,360,6.0,-999.0,63,-99.99,,,-99.99,0.000000,,2013-06-20 06:43:00,
2013-06-20 01:53:00,74.0,61.0,29.80,North,360,6.0,-999.0,63,-99.99,,,-99.99,0.000000,,2013-06-20 06:53:00,
2013-06-20 02:01:00,74.0,61.0,29.80,North,360,5.0,-999.0,65,-99.99,,,-99.99,0.000000,,2013-06-20 07:01:00,
2013-06-20 02:12:00,74.0,62.0,29.80,North,360,4.0,-999.0,66,-99.99,,,-99.99,0.000000,,2013-06-20 07:12:00,
2013-06-20 02:22:00,74.0,62.0,29.80,North,360,4.0,-999.0,66,-99.99,,,-99.99,0.000000,,2013-06-20 07:22:00,
2013-06-20 02:34:00,73.0,62.0,29.79,North,360,5.0,-999.0,69,-99.99,,,-99.99,0.000000,,2013-06-20 07:34:00,
2013-06-20 02:43:00,72.0,63.0,29.79,SE,140,6.0,-999.0,74,-99.99,,,-99.99,0.000000,,2013-06-20 07:43:00,
2013-06-20 02:52:00,72.0,63.0,29.79,SE,140,6.0,-999.0,74,-99.99,,,-99.99,0.000000,,2013-06-20 07:52:00,
2013-06-20 03:02:00,72.0,62.0,29.80,SE,141,11.0,-999.0,72,-99.99,,,-99.99,0.000000,,2013-06-20 08:02:00,
2013-06-20 03:11:00,73.0,63.0,29.80,SE,130,9.0,-999.0,72,-99.99,,,-99.99,0.000000,,2013-06-20 08:11:00,
2013-06-20 03:22:00,73.0,63.0,29.80,SE,130,9.0,-999.0,72,-99.99,,,-99.99,0.000000,,2013-06-20 08:22:00,
2013-06-20 03:34:00,72.0,64.0,29.80,SE,145,8.0,-999.0,75,-99.99,,,-99.99,0.000000,,2013-06-20 08:34:00,
2013-06-20 03:43:00,71.0,64.0,29.80,SE,134,8.0,-999.0,78,-99.99,,,-99.99,0.000000,,2013-06-20 08:43:00,
2013-06-20 03:52:00,71.0,64.0,29.80,SE,134,8.0,-999.0,78,-99.99,,,-99.99,0.000000,,2013-06-20 08:52:00,
2013-06-20 04:02:00,70.0,64.0,29.79,North,360,7.0,-999.0,80,-99.99,,,-99.99,0.000000,,2013-06-20 09:02:00,
2013-06-20 04:11:00,70.0,64.0,29.79,ESE,111,6.0,-999.0,81,-99.99,,,-99.99,0.000000,,2013-06-20 09:11:00,
2013-06-20 04:22:00,70.0,64.0,29.79,ESE,111,6.0,-999.0,81,-99.99,,,-99.99,0.000000,,2013-06-20 09:22:00,
2013-06-20 04:33:00,70.0,64.0,29.78,ESE,107,7.0,-999.0,80,-99.99,,,-99.99,0.000000,,2013-06-20 09:33:00,
2013-06-20 04:42:00,70.0,64.0,29.78,ESE,107,7.0,-999.0,80,-99.99,,,-99.99,0.000000,,2013-06-20 09:42:00,
2013-06-20 04:52:00,70.0,64.0,29.78,ESE,107,7.0,-999.0,80,-99.99,,,-99.99,0.000000,,2013-06-20 09:52:00,
2013-06-20 05:01:00,70.0,64.0,29.78,ESE,107,7.0,-999.0,80,-99.99,,,-99.99,0.000000,,2013-06-20 10:01:00,
2013-06-20 05:11:00,70.0,64.0,29.78,SE,139,7.0,-999.0,80,-99.99,,,-99.99,0.000000,,2013-06-20 10:11:00,
2013-06-20 05:22:00,70.0,64.0,29.78,SE,139,7.0,-999.0,80,-99.99,,,-99.99,0.000000,,2013-06-20 10:22:00,
2013-06-20 05:34:00,70.0,64.0,29.79,North,360,5.0,-999.0,81,-99.99,,,-99.99,0.000000,,2013-06-20 10:34:00,
2013-06-20 05:43:00,70.0,64.0,29.79,SE,132,3.0,-999.0,82,-99.99,,,-99.99,0.000000,,2013-06-20 10:43:00,
2013-06-20 05:53:00,70.0,64.0,29.79,SE,132,3.0,-999.0,82,-99.99,,,-99.99,0.000000,,2013-06-20 10:53:00,
2013-06-20 06:02:00,69.0,64.0,29.80,SE,132,0.0,-999.0,83,-99.99,,,-99.99,0.000000,,2013-06-20 11:02:00,
2013-06-20 06:11:00,69.0,64.0,29.80,SE,132,0.0,-999.0,83,-99.99,,,-99.99,0.000000,,2013-06-20 11:11:00,
2013-06-20 06:22:00,68.0,64.0,29.82,East,101,1.0,-999.0,87,-99.99,,,-99.99,0.000000,,2013-06-20 11:22:00,
2013-06-20 06:34:00,68.0,64.0,29.82,East,84,1.0,-999.0,88,-99.99,,,-99.99,0.000000,,2013-06-20 11:34:00,
2013-06-20 06:42:00,68.0,64.0,29.82,East,84,1.0,-999.0,88,-99.99,,,-99.99,0.000000,,2013-06-20 11:42:00,
2013-06-20 06:53:00,68.0,64.0,29.82,ENE,71,0.0,-999.0,88,-99.99,,,-99.99,0.000000,,2013-06-20 11:53:00,
2013-06-20 07:02:00,67.0,64.0,29.83,NE,55,2.0,-999.0,89,-99.99,,,-99.99,0.000000,,2013-06-20 12:02:00,
2013-06-20 07:11:00,67.0,64.0,29.83,NE,55,2.0,-999.0,89,-99.99,,,-99.99,0.000000,,2013-06-20 12:11:00,
2013-06-20 07:22:00,67.0,64.0,29.84,NE,55,1.0,-999.0,91,-99.99,,,-99.99,0.000000,,2013-06-20 12:22:00,
2013-06-20 07:34:00,66.0,64.0,29.85,NE,46,2.0,-999.0,92,-99.99,,,-99.99,0.000000,,2013-06-20 12:34:00,
2013-06-20 07:43:00,66.0,64.0,29.85,NE,46,2.0,-999.0,92,-99.99,,,-99.99,0.000000,,2013-06-20 12:43:00,
2013-06-20 07:53:00,66.0,64.0,29.86,NE,44,1.0,-999.0,92,-99.99,,,-99.99,5.000000,,2013-06-20 12:53:00,
2013-06-20 08:02:00,65.0,63.0,29.84,NE,44,2.0,-999.0,92,-99.99,,,-99.99,5.000000,,2013-06-20 13:02:00,
2013-06-20 08:11:00,65.0,63.0,29.84,NE,44,2.0,-999.0,92,-99.99,,,-99.99,5.000000,,2013-06-20 13:11:00,
2013-06-20 08:22:00,66.0,64.0,29.85,NE,44,0.0,-999.0,93,-99.99,,,-99.99,5.000000,,2013-06-20 13:22:00,
2013-06-20 08:33:00,66.0,64.0,29.85,NE,44,0.0,-999.0,93,-99.99,,,-99.99,7.000000,,2013-06-20 13:33:00,
2013-06-20 08:42:00,66.0,64.0,29.85,NE,44,0.0,-999.0,93,-99.99,,,-99.99,7.000000,,2013-06-20 13:42:00,
2013-06-20 08:53:00,66.0,64.0,29.88,NE,44,0.0,-999.0,93,-99.99,,,-99.99,5.000000,,2013-06-20 13:53:00,
2013-06-20 09:01:00,65.0,63.0,29.90,NW,304,8.0,-999.0,92,-99.99,,,-99.99,7.000000,,2013-06-20 14:01:00,
2013-06-20 09:11:00,65.0,63.0,29.90,NW,304,8.0,-999.0,92,-99.99,,,-99.99,7.000000,,2013-06-20 14:11:00,
2013-06-20 09:22:00,65.0,63.0,29.90,NW,313,2.0,-999.0,93,-99.99,,,-99.99,12.000000,,2013-06-20 14:22:00,
2013-06-20 09:32:00,66.0,64.0,29.89,NNW,333,2.0,-999.0,93,-99.99,,,-99.99,12.000000,,2013-06-20 14:32:00,
2013-06-20 09:42:00,66.0,64.0,29.89,NNW,333,2.0,-999.0,93,-99.99,,,-99.99,12.000000,,2013-06-20 14:42:00,
2013-06-20 09:53:00,65.0,63.0,29.88,NNW,334,1.0,-999.0,93,-99.99,,,-99.99,16.000000,,2013-06-20 14:53:00,
2013-06-20 10:01:00,65.0,63.0,29.86,NE,44,2.0,-999.0,94,-99.99,,,-99.99,19.000000,,2013-06-20 15:01:00,
2013-06-20 10:11:00,65.0,63.0,29.86,NE,44,2.0,-999.0,94,-99.99,,,-99.99,19.000000,,2013-06-20 15:11:00,
2013-06-20 10:22:00,65.0,63.0,29.86,ENE,69,3.0,-999.0,94,-99.99,,,-99.99,16.000000,,2013-06-20 15:22:00,
2013-06-20 10:33:00,66.0,64.0,29.88,ENE,70,0.0,-999.0,94,-99.99,,,-99.99,12.000000,,2013-06-20 15:33:00,
2013-06-20 10:43:00,66.0,64.0,29.88,ENE,70,0.0,-999.0,94,-99.99,,,-99.99,12.000000,,2013-06-20 15:43:00,
2013-06-20 10:53:00,66.0,64.0,29.80,North,360,12.0,-999.0,94,-99.99,,,-99.99,49.000000,,2013-06-20 15:53:00,
2013-06-20 11:01:00,66.0,64.0,29.80,North,360,12.0,-999.0,94,-99.99,,,-99.99,49.000000,,2013-06-20 16:01:00,
2013-06-20 11:11:00,66.0,64.0,29.81,North,360,7.0,-999.0,94,-99.99,,,-99.99,130.000000,,2013-06-20 16:11:00,
2013-06-20 11:22:00,67.0,65.0,29.74,SSE,147,16.0,-999.0,94,-99.99,,,-99.99,169.000000,,2013-06-20 16:22:00,
2013-06-20 11:33:00,67.0,65.0,29.74,SSE,147,16.0,-999.0,94,-99.99,,,-99.99,169.000000,,2013-06-20 16:33:00,
2013-06-20 11:42:00,68.0,65.0,29.72,SE,137,26.0,-999.0,91,-99.99,,,-99.99,264.000000,,2013-06-20 16:42:00,
2013-06-20 11:52:00,70.0,66.0,29.73,North,360,20.0,-999.0,87,-99.99,,,-99.99,306.000000,,2013-06-20 16:52:00,
2013-06-20 12:01:00,70.0,66.0,29.73,North,360,20.0,-999.0,87,-99.99,,,-99.99,306.000000,,2013-06-20 17:01:00,
2013-06-20 12:11:00,71.0,66.0,29.75,SSE,167,23.0,-999.0,85,-99.99,,,-99.99,327.000000,,2013-06-20 17:11:00,
2013-06-20 12:22:00,72.0,67.0,29.77,SSE,163,19.0,-999.0,83,-99.99,,,-99.99,413.000000,,2013-06-20 17:22:00,
2013-06-20 12:32:00,72.0,67.0,29.77,SSE,163,19.0,-999.0,83,-99.99,,,-99.99,413.000000,,2013-06-20 17:32:00,
2013-06-20 12:43:00,74.0,67.0,29.76,SE,138,12.0,-999.0,80,-99.99,,,-99.99,461.000000,,2013-06-20 17:43:00,
2013-06-20 12:52:00,75.0,68.0,29.78,North,360,13.0,-999.0,79,-99.99,,,-99.99,506.000000,,2013-06-20 17:52:00,
2013-06-20 13:01:00,75.0,68.0,29.78,North,360,13.0,-999.0,79,-99.99,,,-99.99,506.000000,,2013-06-20 18:01:00,
2013-06-20 13:11:00,76.0,68.0,29.79,SSE,160,11.0,-999.0,76,-99.99,,,-99.99,540.000000,,2013-06-20 18:11:00,
2013-06-20 13:22:00,78.0,70.0,29.79,North,360,7.0,-999.0,76,-99.99,,,-99.99,872.000000,,2013-06-20 18:22:00,
2013-06-20 13:33:00,78.0,70.0,29.79,North,360,7.0,-999.0,76,-99.99,,,-99.99,872.000000,,2013-06-20 18:33:00,
2013-06-20 13:43:00,80.0,70.0,29.79,SE,140,8.0,-999.0,71,-99.99,,,-99.99,766.000000,,2013-06-20 18:43:00,
2013-06-20 13:53:00,81.0,69.0,29.80,SE,136,5.0,-999.0,66,-99.99,,,-99.99,497.000000,,2013-06-20 18:53:00,
2013-06-20 14:01:00,81.0,69.0,29.80,SE,136,5.0,-999.0,66,-99.99,,,-99.99,497.000000,,2013-06-20 19:01:00,
2013-06-20 14:11:00,82.0,69.0,29.80,SSE,168,4.0,-999.0,64,-99.99,,,-99.99,452.000000,,2013-06-20 19:11:00,
2013-06-20 14:22:00,83.0,67.0,29.80,SSE,152,9.0,-999.0,59,-99.99,,,-99.99,680.000000,,2013-06-20 19:22:00,
2013-06-20 14:34:00,83.0,67.0,29.80,SSE,152,9.0,-999.0,59,-99.99,,,-99.99,680.000000,,2013-06-20 19:34:00,
2013-06-20 14:43:00,83.0,68.0,29.79,SSE,156,8.0,-999.0,60,-99.99,,,-99.99,751.000000,,2013-06-20 19:43:00,
2013-06-20 14:52:00,85.0,68.0,29.79,SSE,149,10.0,-999.0,56,-99.99,,,-99.99,671.000000,,2013-06-20 19:52:00,
2013-06-20 15:02:00,85.0,68.0,29.79,SSE,149,10.0,-999.0,56,-99.99,,,-99.99,671.000000,,2013-06-20 20:02:00,
2013-06-20 15:11:00,85.0,67.0,29.78,SSE,149,11.0,-999.0,55,-99.99,,,-99.99,844.000000,,2013-06-20 20:11:00,
2013-06-20 15:22:00,85.0,68.0,29.78,SE,126,9.0,-999.0,57,-99.99,,,-99.99,508.000000,,2013-06-20 20:22:00,
2013-06-20 15:33:00,85.0,68.0,29.78,SE,126,9.0,-999.0,57,-99.99,,,-99.99,508.000000,,2013-06-20 20:33:00,
2013-06-20 15:42:00,85.0,68.0,29.78,SSE,154,8.0,-999.0,56,-99.99,,,-99.99,684.000000,,2013-06-20 20:42:00,
2013-06-20 15:52:00,85.0,68.0,29.78,SSE,154,8.0,-999.0,56,-99.99,,,-99.99,684.000000,,2013-06-20 20:52:00,
2013-06-20 16:01:00,86.0,68.0,29.77,SE,128,9.0,-999.0,55,-99.99,,,-99.99,714.000000,,2013-06-20 21:01:00,
2013-06-20 19:11:00,86.0,68.0,29.72,SE,127,6.0,-999.0,55,-99.99,,,-99.99,120.000000,,2013-06-21 00:11:00,